Location: Ariel
(45.9570°N, 122.5700°W)
Time: 22:28:30
(UTC-07:00)

Tiros 1 - Pass Details

Date: 28 July 2019
Orbit: 630 x 664 km, 48.4° (Epoch: 21 August)

Event Time Altitude Azimuth Distance (km) Brightness Sun altitude
Rises 16:45:29 0° 288° (WNW) 2,999 11.2 39.5°
Reaches altitude 10° 16:48:05 10° 277° (W) 2,083 10.8 39.1°
Maximum altitude 16:52:10 28° 219° (SW) 1,238 9.7 38.4°
Drops below altitude 10° 16:56:13 10° 160° (SSE) 2,067 9.8 37.7°
Sets 16:58:49 0° 149° (SSE) 2,972 10.4 37.2°
